Find STARLINK-37934

NORAD ID: 799500997 Int'l Des: 2026-135X Constellation: starlink operational

当前视图

正在加载3D地球...

About STARLINK-37934

STARLINK-37934 (NORAD 799500997) is a starlink constellation satellite launched Jun 8, 2026

关于 STARLINK-37934

正在加载描述...

即将过境

Passes for default location (London). Set your location on the main map for personalized predictions.

高度历史

Loading altitude history...

两行轨道根数

1 99999C 2026135X 26167.15326389 .00460290 00000-0 705360-4 0 1676
2 99999 97.2791 193.9657 0010871 262.2374 254.1242 16.04005862 18
Epoch: Jun 16, 2026 • Age: 4 hours